Content
SEND FEEDBACK

Daily
Averages
Monthly
Summary
Mexico

COZUMEL, QUINTANA ROO


Home > North America > Mexico > Quintana Roo
Elevation: 15 feet     Latitude: 20 31N     Longitude: 086 56W

WEATHER
 
SELECT A DAY
Number of Records: 124,591;   Date Range: 1/1/95 - 7/27/14
 
SHARE

PRINT THIS DATA

[ ← Previous Day ]
WEATHER ALMANAC - JUNE 18, 2014
[ Next Day → ]
[ °C ]   °F
Weather ElementAverageHighLow
Temperature78.6 °F86 °F (1:48 pm)71.6 °F (3:00 am)
Dewpoint74.3 °F75.2 °F (7:41 am)71.6 °F (3:00 am)
Humidity87.6 %100 % (1:54 am)70 % (1:48 pm)
Barometer30.00 in30.05 in (9:42 am)29.92 in (3:00 am)
Wind Speed6.4 mph15 mph (12:42 pm)
Weather ElementAverage
Visibility7.4 mi
Wind DirectionENE (81.7 °)

Weather ElementTotal
Precipitation---
Cooling Degree Days13.8 (Base 65)
Growing Degree Days28.8 (Base 50)
Averaged from 23 records on June 18, 2014
WEATHER CONDITIONS BREAKOUT
WIND DIRECTION BREAKOUT
WEATHER BY HOUR - JUNE 18, 2014
[ °C ]   °F
Local TimeTemperatureDewpointHumidityBarometerVisibilityWind DirectionWind SpeedGust SpeedPrecipitationEventsConditions
1:54 AM73.4 °F73.4 °F100 %29.98 in7.0 miEast (80°)4.6 mphScattered Clouds
3:00 AM71.6 °F71.6 °F100 %29.92 in7.0 miNNE (20°)4.6 mphScattered Clouds
3:46 AM71.6 °F71.6 °F100 %29.99 in7.0 miCalmScattered Clouds
4:46 AM71.6 °F71.6 °F100 %29.98 in7.0 miCalmMostly Cloudy
5:45 AM73.4 °F73.4 °F100 %29.98 in7.0 miCalmMostly Cloudy
6:46 AM71.6 °F71.6 °F100 %29.98 in7.0 miCalmScattered Clouds
7:41 AM77.0 °F75.2 °F94 %30.00 in7.0 miEast (100°)3.5 mphClear
8:42 AM80.6 °F75.2 °F84 %30.02 in8.0 miESE (110°)6.9 mphPartly Cloudy
9:42 AM82.4 °F75.2 °F79 %30.05 in8.0 miESE (110°)8.1 mphScattered Clouds
10:51 AM84.2 °F75.2 °F74 %30.03 in8.0 miEast (100°)8.1 mphScattered Clouds
11:48 AM84.2 °F75.2 °F74 %30.02 in8.0 miSE (130°)12.7 mphScattered Clouds
12:42 PM84.2 °F75.2 °F74 %30.00 in8.0 miESE (120°)15.0 mphScattered Clouds
1:48 PM86.0 °F75.2 °F70 %30.00 in8.0 miESE (110°)11.5 mphScattered Clouds
2:50 PM84.2 °F75.2 °F74 %29.99 in8.0 miEast (100°)10.4 mphScattered Clouds
3:47 PM84.2 °F73.4 °F70 %30.00 in8.0 miESE (120°)12.7 mphScattered Clouds
4:43 PM84.2 °F73.4 °F70 %29.99 in8.0 miESE (110°)11.5 mphScattered Clouds
5:43 PM82.4 °F75.2 °F79 %29.99 in8.0 miEast (100°)10.4 mphScattered Clouds
6:43 PM80.6 °F75.2 °F84 %29.98 in7.0 miEast (90°)5.8 mphMostly Cloudy
7:42 PM77.0 °F75.2 °F94 %30.00 in7.0 miEast (100°)4.6 mphScattered Clouds
8:50 PM77.0 °F75.2 °F94 %30.01 in7.0 miEast (90°)4.6 mphScattered Clouds
9:45 PM75.2 °F75.2 °F100 %30.05 in7.0 miEast (100°)3.5 mphScattered Clouds
10:41 PM75.2 °F75.2 °F100 %30.02 in7.0 miEast (100°)5.8 mphScattered Clouds
11:45 PM75.2 °F75.2 °F100 %30.02 in7.0 miEast (90°)3.5 mphPartly Cloudy
Hourly data recorded from MMCZ, located miles away from Cozumel, Quintana Roo







STORIES FROM OUR PARTNERS